CW7536 Weather Reports


Display with metric or nautical units.
time (UTC)temp
F
wind
direction
speed
MPH
gust
MPH
rain 1hr
in
rain 24hr
in
rain mn
in
humidity
%
barometer
mb
20260905150059 76 315 0.0 2.0 0.00 0.00 0.00 19 1011.0
20260905144555 76 359 1.0 5.0 0.00 0.00 0.00 18 1011.0
20260905143050 76 44 2.0 5.0 0.00 0.00 0.00 15 1010.9
20260905141546 75 13 2.0 7.0 0.00 0.00 0.00 17 1010.8
20260905140041 76 308 0.0 3.0 0.00 0.00 0.00 12 1010.8
20260905134539 75 37 0.0 5.0 0.00 0.00 0.00 9 1010.8
20260905133032 75 40 1.0 5.0 0.00 0.00 0.00 5 1010.7
20260905131529 74 70 0.0 3.0 0.00 0.00 0.00 1 1010.9
20260905130024 72 35 0.0 2.0 0.00 0.00 0.00 1 1010.9
20260905124523 70 73 0.0 3.0 0.00 0.00 0.00 1 1011.1
20260905123019 69 98 1.0 4.0 0.00 0.00 0.00 1 1011.4
20260905121510 68 111 0.0 3.0 0.00 0.00 0.00 1 1011.3
20260905120005 67 18 0.0 1.0 0.00 0.00 0.00 1 1011.2
20260905114501 66 36 0.0 1.0 0.00 0.00 0.00 1 1011.1
20260905113057 66 323 0.0 1.0 0.00 0.00 0.00 1 1011.0
20260905111604 66 267 0.0 1.0 0.00 0.00 0.00 1 1010.8
20260905110056 66 8 0.0 1.0 0.00 0.00 0.00 1 1010.5
20260905104555 66 8 0.0 0.0 0.00 0.00 0.00 1 1010.3
20260905103039 66 8 0.0 0.0 0.00 0.00 0.00 1 1010.3
20260905101536 66 8 0.0 0.0 0.00 0.00 0.00 1 1010.4
20260905100036 67 8 0.0 1.0 0.00 0.00 0.00 1 1010.3
20260905094526 67 38 0.0 0.0 0.00 0.00 0.00 1 1010.2
20260905093021 68 38 0.0 0.0 0.00 0.00 0.00 1 1010.2
20260905091517 69 38 0.0 0.0 0.00 0.00 0.00 1 1010.1
20260905090012 70 38 0.0 0.0 0.00 0.00 0.00 1 1010.1
20260905084507 70 38 0.0 1.0 0.00 0.00 0.00 2 1010.0
20260905083005 70 18 0.0 1.0 0.00 0.00 0.00 4 1010.0
20260905081559 70 7 0.0 1.0 0.00 0.00 0.00 6 1010.1
20260905074601 71 42 0.0 0.0 0.00 0.00 0.00 7 1009.9
20260905073046 71 42 0.0 1.0 0.00 0.00 0.00 7 1010.1
20260905071545 71 48 0.0 0.0 0.00 0.00 0.00 7 1010.2
20260905064533 71 34 0.0 1.0 0.00 0.00 0.00 8 1010.3
20260905063029 71 42 0.0 0.0 0.00 0.00 0.00 7 1010.3
20260905061524 71 42 0.0 1.0 0.00 0.00 0.00 5 1010.3
20260905060019 71 44 0.0 0.0 0.00 0.00 0.00 2 1010.4
20260905054532 72 44 0.0 0.0 0.00 0.00 0.00 2 1010.4
20260905053010 72 44 0.0 0.0 0.00 0.00 0.00 2 1010.7
20260905051506 72 44 0.0 0.0 0.00 0.00 0.00 2 1010.9
20260905050001 72 44 0.0 0.0 0.00 0.00 0.00 1 1011.0
20260905044558 72 44 0.0 0.0 0.00 0.00 0.00 2 1011.0
20260905043054 72 44 0.0 1.0 0.00 0.00 0.00 3 1011.0
20260905041555 73 34 0.0 1.0 0.00 0.00 0.00 2 1011.0
20260905040050 73 34 0.0 0.0 0.00 0.00 0.00 1 1011.1
20260905034542 72 34 0.0 0.0 0.00 0.00 0.00 1 1011.1
20260905033049 72 34 0.0 1.0 0.00 0.00 0.00 1 1011.1
20260905031539 72 34 0.0 0.0 0.00 0.00 0.00 1 1011.0
20260905030033 72 34 0.0 0.0 0.00 0.00 0.00 1 1011.0
20260905024526 71 34 0.0 0.0 0.00 0.00 0.00 1 1011.0
20260905023028 71 34 0.0 0.0 0.00 0.00 0.00 1 1011.0
20260905021516 72 34 0.0 0.0 0.00 0.00 0.00 1 1011.2
20260905020014 72 34 0.0 0.0 0.00 0.00 0.00 1 1011.3
20260905014507 71 34 0.0 0.0 0.00 0.00 0.00 1 1011.3
20260905013002 72 34 0.0 0.0 0.00 0.00 0.00 1 1011.1
20260905011606 72 41 0.0 0.0 0.00 0.00 0.00 1 1011.0
20260905010106 73 44 0.0 0.0 0.00 0.00 0.00 1 1011.2
20260905004551 73 44 0.0 0.0 0.00 0.00 0.00 1 1010.9
20260905003048 73 44 0.0 0.0 0.00 0.00 0.00 1 1011.0
20260905001543 74 44 0.0 1.0 0.00 0.00 0.00 1 1010.9
20260905000040 75 44 0.0 0.0 0.00 0.00 0.00 1 1010.7
20260904234542 76 44 0.0 0.0 0.00 0.00 0.00 1 1010.6
20260904233030 77 44 0.0 0.0 0.00 0.00 0.00 11 1010.5
20260904231528 78 44 0.0 0.0 0.00 0.00 0.00 21 1010.5
20260904230021 80 44 0.0 0.0 0.00 0.00 0.00 29 1010.5
20260904224516 83 44 0.0 0.0 0.00 0.00 0.00 33 1010.6
20260904223012 86 348 0.0 0.0 0.00 0.00 0.00 33 1010.7
20260904221508 86 347 0.0 1.0 0.00 0.00 0.00 32 1010.7
20260904220003 85 32 0.0 1.0 0.00 0.00 0.00 33 1010.5
20260904214559 85 6 0.0 1.0 0.00 0.00 0.00 33 1010.5
20260904213059 86 52 0.0 1.0 0.00 0.00 0.00 32 1010.3
20260904211557 84 18 0.0 1.0 0.00 0.00 0.00 32 1010.2
20260904210048 84 6 0.0 6.0 0.00 0.00 0.00 32 1010.2
20260904204541 84 328 0.0 3.0 0.00 0.00 0.00 31 1010.5
20260904203044 84 38 0.0 3.0 0.00 0.00 0.00 32 1010.7
20260904201533 85 286 0.0 2.0 0.00 0.00 0.00 31 1010.8
20260904200028 85 2 0.0 4.0 0.00 0.00 0.00 30 1010.9
20260904194524 85 360 0.0 5.0 0.00 0.00 0.00 30 1011.0
20260904193023 84 316 0.0 4.0 0.00 0.00 0.00 29 1011.0
20260904191519 84 44 0.0 3.0 0.00 0.00 0.00 29 1011.2
20260904190015 85 35 0.0 1.0 0.00 0.00 0.00 27 1011.3
20260904184507 85 318 0.0 2.0 0.00 0.00 0.00 27 1011.4
20260904183003 85 54 2.0 6.0 0.00 0.00 0.00 27 1011.7
20260904181558 84 3 0.0 5.0 0.00 0.00 0.00 26 1011.6
20260904180056 85 317 0.0 6.0 0.00 0.00 0.00 25 1011.5
20260904174551 85 351 0.0 6.0 0.00 0.00 0.00 23 1011.5
20260904173045 84 51 1.0 8.0 0.00 0.00 0.00 23 1011.3
20260904171550 84 359 0.0 5.0 0.00 0.00 0.00 21 1011.5
20260904170037 85 110 2.0 7.0 0.00 0.00 0.00 19 1011.5
20260904164532 84 318 0.0 3.0 0.00 0.00 0.00 17 1011.8
20260904163029 83 295 0.0 3.0 0.00 0.00 0.00 15 1011.6
20260904161525 83 340 0.0 6.0 0.00 0.00 0.00 14 1011.7
20260904160025 84 20 2.0 8.0 0.00 0.00 0.00 10 1011.7
20260904154514 83 347 1.0 5.0 0.00 0.00 0.00 9 1011.8
20260904153010 83 95 1.0 5.0 0.00 0.00 0.00 2 1011.9
20260904151505 83 10 0.0 5.0 0.00 0.00 0.00 1 1012.1